loading
|
Showing default

CALSPHERE 4(A), 1520

Orbit data source: Space-Track

CALSPHERE 4(A), 1520 is a payload satellite owned by NRL (US) in LEO that was launched on Fri, 13 Aug 1965 UTC via a THOR ABLESTAR launch vehicle from the Air Force Western Test Range (AFWTR). Payloads include a variety of satellites, spacecraft, and rockets equipped with specific instruments for various scientific and technological missions. These include communications satellites like Starlink; space stations such as the ISS; scientific satellites like the Hubble; Earth observation satellites from companies like Planet Labs, Umbra, and HawkEye 360; GPS; miniature CubeSats for education and research; and military/defense satellites.

Loading next visibility...
Loading greatness...
CALSPHERE 4(A) details
Identifier
1520, 1965-065H
Orbit
LEO
Last TLE update9 hours ago
Origin
Flag of USNRL (US)
ManufacturerNRL
Mission statusOperational
MissionDefense Calibration
Bus & MotorNRL 14", Unknown motor
Mass4 kg wet, 4 kg dry
Launch date (UTC)
1965-08-13 (59 years ago)
Launch vehicle
THOR ABLESTAR
Launch site
Air Force Western Test Range (AFWTR)
Object type
Payload
Rocket body
Debris
Radar Cross Section0.04 m², Small (<0.1 m²)

Expand to show TLE details & history

TLE from 9 hours ago
0 CALSPHERE 4(A)
1 01520U 65065H   24261.52500067  .00000329  00000-0  61414-3 0  9993
2 01520  89.9390 127.5615 0070897 102.2333 329.1924 13.36104301877554
Epoch: 2024-09-17T12:36Z
Definitive object data (Epoch: 2024-09-17T12:36:00.057Z)
Latitude71.07345°
Longitude-58.20017°
Altitude1,090.597 km
Speed7.335 km/s
True Right ascension08h 30m 57s
True Declination70° 58' 21"
Sunlit
Object was in daylight at TLE epoch
Predictive object data (real-time)
Latitude77.30888°
Longitude-58.10992°
Altitude1,088.327 km
Speed7.338 km/s
Apparent Right ascension03h 40m 35s
Apparent Declination31° 53' 10"
Sunlit
Object is in daylight
Predictive observer data (real-time)
Local Sidereal Time14:25:48
Azimuth343.54° N
Elevation-16.137°
Doppler factor1
Orbital elements
Apogee1,174.062 km
Perigee1,067.73 km
Semi-major axis7,499.033 km
Eccentricity0.0070897
Inclination89.939°
RAAN127.5615°
Arg. of periapsis102.2333°
True anomaly328.77313°
Mean anomaly329.1924°
Eccentric anomaly328.98308°
Mean motion3.34222 °/min
BSTAR0.00061414
Period107.71 mins
No data available

CALSPHERE 4(A) Visibility forecast

Observer location: 39.9160978°, -105.1181434

CALSPHERE 4(A) is not visible in the next 10 days
Span
Click to sort rows by Start time (UTC) header in descending order
Start Az.
Max El. time (UTC)
Max El. Az.
Max El.
End time (UTC)
End Az.